Location: Unspecified
(44.0704°N, 88.6889°W)
Time: 07:25:00
(UTC+02:00)

Transit 2A - Pass Details

Date: 26 June 2019
Orbit: 597 x 962 km, 66.7° (Epoch: 21 August)

Event Time Altitude Azimuth Distance (km) Brightness Sun altitude
Rises 13:52:41 0° 333° (NNW) 3,502 9.3 15.2°
Reaches altitude 10° 13:56:23 10° 355° (N) 2,487 8.9 15.8°
Maximum altitude 13:59:44 16° 31° (NNE) 2,041 9.1 16.4°
Drops below altitude 10° 14:02:55 10° 68° (ENE) 2,334 11.1 16.9°
Sets 14:06:13 0° 91° (E) 3,176 10.6 17.5°
